Location: Pian di Sc�
(43.6333°N, 11.5500°E)
Time: 17:15:48
(UTC+00:00)

Cosmos 2237 Rocket - Pass Details

Date: 07 August 2020
Orbit: 836 x 849 km, 71.0° (Epoch: 19 September)

Event Time Altitude Azimuth Distance (km) Brightness Sun altitude
Rises 00:50:47 0° 333° (NNW) 3,408 5.9 -26.5°
Reaches altitude 10° 00:53:15 10° 333° (NNW) 2,468 5.1 -26.3°
Maximum altitude 00:58:55 80° 248° (WSW) 857 2.0 -25.9°
Enters shadow 00:59:20 74° 196° (SSW) 874 2.0 -25.8°
